パンスターズ彗星

C/2016 VZ18 ( PanSTARRS )

English version
Home page
Updated on March 3, 2018

---------------------------------------------------------------------

・ プロフィール

発見日 2016年11月6日
発見光度 21.8等
発見者 Pan-STARRS 1 telescope (Haleakala)

・ 写真集

・ 軌道要素

Epoch 2017 Feb. 16.0 TT = JDT 2457800.5
T 2017 Mar. 7.38008 TT                                  MPCW
q   0.9102661            (2000.0)            P               Q
z  +0.0051395      Peri.   36.38619     -0.66049114     -0.63393467
 +/-0.0000014      Node    98.95472     +0.55611957     -0.77306731
e   0.9953217      Incl.   24.03568     +0.50446257     +0.02222093
From 329 observations 2016 Oct. 8-2017 July 25, mean residual 0".5.

・ 星図

・ 光度変化

        m1 = 18.0 + 5 logΔ + 10.0 log r  [   ,-35]  (              〜2017年 1月31日)
        m1 = 16.0 + 5 logΔ + 55   log r  [-35, 35]  (2017年 1月31日〜2017年 4月11日)
        m1 = 18.0 + 5 logΔ + 10.0 log r  [ 35,   ]  (2017年 4月11日〜              )

---------------------------------------------------------------------

軌道要素はM.P.E.C. 2017-T14に掲載されたものです。
星図はステラナビゲータ Ver.10 (アストロアーツ) で作成したものです。
光度グラフはComet for Windowsで作成したものです。

---------------------------------------------------------------------

Copyright(C) Seiichi Yoshida (comet@aerith.net). All rights reserved.